NAPA-1 (46320 NORAD) Tracking and Keplerian Element Data

This shows tracking and keplerian element data for the satellite.

Feedback or suggestion? Click here.




ElementValue
Catalog46320
NameNAPA-1
Epoch Orbit1355
Epoch Day336.93825861
Epoch Year2020
RAAN48.4975
Inclination97.5107
Eccentricity0.0001436
Argument of Perigee309.3272
Mean Anonmoly50.783
Mean Motion15.11140622
Decay Rate1.059E-05
L11 46320U 20061BA 20336.93825861 .00001059 00000-0 66968-4 0 9994
L22 46320 97.5107 48.4975 0001436 309.3272 50.7830 15.11140622 13553

Live tracking and technical data element details for NAPA-1 (NORAD 46320). NAPA-1 can be tracked NOW for your location showing map with azimuth and elevation plus other details from your city location.

Track the satellite on the map from your city or location and see movement details for azimuth, elevation, latitude, longitude, range, height, and movement on the map or in text.







IsCatalogInMostPopularTable: catalog: 46320, numindb: 15
Update: records affected: 1



GetName: 46320 NAPA-1

Hit Count: updated at: Thu, 03 Dec 2020 07:16:06 GMT